Regional Weather Roundup
Issued by NWS Green Bay, WI

Home | Current Version | Previous Version | Graphics & Text | Print | Product List | Glossary Off
Versions: 1 2 3 4 5 6 7 8 9 10 11 12 13 14 15 16 17 18 19 20 21 22 23 24 25 26 27 28 29 30 31 32 33 34 35 36 37 38 39 40 41 42 43 44 45 46 47 48 49 50

000
ASUS43 KGRB 231710
RWRGRB

NORTH-CENTRAL AND NORTHEAST WISCONSIN REGIONAL WEATHER ROUNDUP
NATIONAL WEATHER SERVICE GREEN BAY WI
1100 AM CST SUN NOV 23 2014

WIZ005-009-010>012-018-019-231800-
NORTH CENTRAL WISCONSIN

CITY           SKY/WX    TMP DP  RH WIND       PRES   REMARKS
IRONWOOD       CLOUDY    46  46 100 S13G21    29.41F
MANITOWISH WTR FOG       42  42 100 S9        29.48F VSB<1/4
ARBOR VITAE    FOG       44  43  96 S7        29.49F VSB<1/4
EAGLE RIVER    MIX PCPN  44  44 100 S6        29.50F VSB 1/4
LAND O LAKES   FOG       44  44 100 S5        29.50F VSB 1/2
RHINELANDER    FOG       43  43 100 S6        29.52F VSB 1/4
PHILLIPS       FOG       42  42 100 S8        29.47F VSB<1/4
ANTIGO         FOG       41  41 100 S9        29.53F VSB<1/4
TOMAHAWK       FOG       44  43  97 CALM      29.51F VSB 1/4
MERRILL        FOG       45  45 100 S5        29.52F VSB<1/4
$$

WIZ013-073-231800-
NORTHEAST WISCONSIN

CITY           SKY/WX    TMP DP  RH WIND       PRES   REMARKS
IRON MOUNTAIN  FOG       43  42  97 S7        29.53F VSB<1/4
MARINETTE      CLOUDY    45  43  93 S9        29.58F VSB 1/4
OCONTO         CLOUDY    44  44 100 S7        29.59F
$$

WIZ017-030-035>037-045-231800-
CENTRAL WISCONSIN

CITY           SKY/WX    TMP DP  RH WIND       PRES   REMARKS
MEDFORD        FOG       42  42 100 SE8       29.49F VSB<1/4
WAUSAU         FOG       45  45 100 S13       29.51F VSB 1/4
MOSINEE        NOT AVBL
MARSHFIELD     FOG       47  46  97 S12       29.51F VSB<1/4
WISC RAPIDS    CLOUDY    49  47  93 S8        29.55F
STEVENS POINT  FOG       46  46 100 S8G16     29.55F VSB 1
WAUPACA        CLOUDY    51  50  95 S7        29.58F FOG
SHAWANO        CLOUDY    49  48  95 CALM      29.57F FOG
CLINTONVILLE   CLOUDY    46  46 100 S9        29.57F FOG
$$

WIZ038-039-048-051-231800-
FOX VALLEY

CITY           SKY/WX    TMP DP  RH WIND       PRES   REMARKS
NWS GREEN BAY  CLOUDY    48  46  93 S10       29.60S FOG
APPLETON         N/A     48  48 100 S17       29.60F FOG
OSHKOSH        CLOUDY    48  46  93 S14       29.61F FOG
FOND DU LAC    CLOUDY    50  45  83 S10       29.61F
$$

WIZ022-050-052-231800-
EAST CENTRAL WISCONSIN

CITY           SKY/WX    TMP DP  RH WIND       PRES   REMARKS
STURGEON BAY   CLOUDY    45  43  93 S20G26    29.61F
MANITOWOC      CLOUDY    45  44  97 S13       29.63F
SHEBOYGAN      CLOUDY    48  45  89 S10       29.62F
$$

LMZ563-521-522-541>543-231800-
LAKESHORE

STATION/POSITION TIME  TEMP    WIND        PRES    VSBY  WAVE
                       AIR SEA DIR/SP/G                  HT/PER
                 (UTC) (F)     (DEG/KT/KT) (MB)    (MI)  (FT/S)
SHEBOYGAN LKSHOR 1700   45 40  170/ 18/ 19 1003.8F
KEWAUNEE LKSHORE 1700   40     180/ 13/ 14 1002.8F
TWO RIVERS CG    1600   42                 1005.0   3 1/2  3
NORTHPORT PIER   1700   44     170/  7/ 15 1003.0F
N MID LAKE BUOY  1700   45 42  190/ 21/ 25 1003.1F         6/ 6
SISTER BAY LKSHO 1700          190/ 21/ 26   N/A
STURGEON BAY CG  1600   41     190/ 11     1005.6    3/8   2
CHAMBERS ISLAND  1700   45     140/  9/ 14 1002.7F
MENOMINEE LKSHOR 1700   41     160/ 10/ 13 1002.7F
$$


USA.gov is the U.S. government's official web portal to all federal, state and local government web resources and services.